This is the latest recevied weather packets stored in our database for station/object WB3EGK. If no packets are shown the sender has not sent any weather packets the latest 1 day(s).
| Time | Temp. | Humidity | Pressure | Rain* | Wind** | Luminosity | Snow |
|---|---|---|---|---|---|---|---|
| 1778036236 | 9.44° C | 1% | 1005.9 hPa | 4.83 mm | - | 0 W/m² | - |
| 1778035932 | 9.44° C | 1% | 1005.7 hPa | 4.32 mm | - | 0 W/m² | - |
| 1778035326 | 9.44° C | 1% | 1005.9 hPa | 7.11 mm | - | 0 W/m² | - |
| 1778035022 | 9.44° C | 1% | 1006.2 hPa | 6.1 mm | - | 0 W/m² | - |
| 1778034114 | 9.44° C | 1% | 1006 hPa | 1.78 mm | - | 0 W/m² | - |
| 1778033812 | 9.44° C | 1% | 1005.9 hPa | 1.78 mm | - | 0 W/m² | - |
| 1778033509 | 9.44° C | 1% | 1006 hPa | 3.05 mm | - | 0 W/m² | - |
| 1778032601 | 9.44° C | 1% | 1006.3 hPa | 1.78 mm | - | 0 W/m² | - |
| 1778032298 | 9.44° C | 1% | 1006.3 hPa | 1.27 mm | - | 0 W/m² | - |
| 1778031995 | 9.44° C | 1% | 1006.5 hPa | 3.05 mm | - | 0 W/m² | - |
| 1778031691 | 9.44° C | 1% | 1006.3 hPa | 1.78 mm | - | 0 W/m² | - |
| 1778031389 | 9.44° C | 1% | 1006.2 hPa | 1.27 mm | - | 0 W/m² | - |
| 1778031086 | 9.44° C | 1% | 1006.5 hPa | 3.05 mm | - | 0 W/m² | - |
| 1778030781 | 9.44° C | 1% | 1006.3 hPa | 3.05 mm | - | 0 W/m² | - |
| 1778030478 | 9.44° C | 1% | 1006.2 hPa | 1.27 mm | - | 0 W/m² | - |
| 1778030176 | 9.44° C | 1% | 1006.3 hPa | 1.78 mm | - | 0 W/m² | - |
| 1778029872 | 9.44° C | 1% | 1006.5 hPa | 6.1 mm | - | 0 W/m² | - |
| 1778029566 | 9.44° C | 1% | 1006.5 hPa | 13.72 mm | - | 0 W/m² | - |
| 1778028655 | 10° C | 1% | 1007.4 hPa | 3.56 mm | - | 0 W/m² | - |
| 1778028353 | 10° C | 1% | 1006.5 hPa | 1.78 mm | - | 0 W/m² | - |
| 1778027746 | 10° C | 1% | 1006.3 hPa | 1.27 mm | - | 0 W/m² | - |
| 1778027138 | 9.44° C | 1% | 1005.9 hPa | 0 mm | - | 0 W/m² | - |
| 1778026228 | 10° C | 1% | 1005.8 hPa | 0 mm | - | 1 W/m² | - |
| 1778025321 | 10° C | 1% | 1005.9 hPa | 0 mm | - | 3 W/m² | - |
| 1778023806 | 11.11° C | 1% | 1005.9 hPa | 0 mm | - | 11 W/m² | - |
* Rain latest hour (hover to see other rain measurements)
** Current wind speed in m/s (hover to see current wind gust speed)